www.pogodaiklimat.ru

Погода и климат >> Архив погоды >> Финляндия >> Муонио Аламуонио


ПОГОДА в Муонио Аламуонио

  • Прогноз погоды в Муонио Аламуонио
  • Монитор погоды в Муонио Аламуонио

АРХИВ ПОГОДЫ в Муонио Аламуонио

Время (UTC), дата Ветер
(напр.,м/с)
 
Видим.   Явления Облачность Т
(С)
Тd
(С)
f
(%)
Тe
(С)
Тes
(С)
Комфортность P
(гПа)
Po
(гПа)
Тmin
(С)
Tmax
(С)
R
(мм)
R24
(мм)
S
(см)
10 17.06 В 2 40 км 9/9 1500 м
[]
+16.4 +2.2 38 +17 +18 1007.7 979.8
11 17.06 СВ 2 30 км 10/10 1500 м
[]
+16.7 +2.5 38 +17 +17 1007.5 979.7
12 17.06 ЮВ 1 40 км 9/9 1500 м
[]
+17.7 +2.7 37 +19 +20 1007.4 979.6
13 17.06 З 2 40 км 9/8 1500 м
[]
+18.6 +2.8 35 +19 +21 1007.0 979.3
14 17.06 ЮЗ 1 35 км 9/9 1500 м
[]
+19.1 +3.0 34 +20 +21 1007.0 979.4
15 17.06 З 2 45 км 9/9 2000 м
[]
+19.7 +3.3 34 +21 +21 комфорт 1006.6 979.1
16 17.06 ЮВ 1 45 км ясно +19.2 +3.4 35 +21 +25 комфорт 1006.3 978.8
17 17.06 Ю 1 45 км ясно +18.8 +3.8 37 +20 +23 1006.0 978.5
18 17.06 ЮВ 1 40 км 4/0
[]
+18.1 +5.1 42 +19 +20 1005.9 978.3 +12.6 +19.9 0.1
19 17.06 В 1 45 км 3/0
[]
+16.2 +5.9 50 +17 +18 1006.0 978.2
20 17.06 В 1 40 км 8/0
[]
+15.2 +6.6 56 +16 +16 1006.4 978.5
21 17.06 СВ 2 30 км ясно +14.7 +2.0 42 +15 +15 1007.1 979.1
22 17.06 СВ 2 22 км 4/0
[]
+14.4 +1.8 42 +14 +14 1007.4 979.4
23 17.06 С 2 45 км 1/1 2000 м
[]
+12.0 +1.9 50 +11 +11 1008.0 979.7
00 18.06 СВ 1 50 км 8/8
[]
+9.8 +1.8 57 +10 +10 1008.5 980.0
01 18.06 В 1 40 км 1/1
[]
+10.7 +1.5 53 +11 +11 1008.7 980.3
02 18.06 СВ 3 21 км 9/9
[]
+11.3 +1.2 50 +10 +10 1008.8 980.4
03 18.06 В 2 40 км 9/9
[]
+11.7 +1.7 50 +11 +11 1008.9 980.5
04 18.06 В 2 40 км 8/8
[]
+11.3 +1.3 50 +11 +11 1009.2 980.8
05 18.06 В 3 28 км 8/8 2000 м
[]
+12.3 +0.5 44 +11 +12 1008.7 980.4
06 18.06 В 2 35 км 9/9 2000 м
[]
+12.9 +0.7 43 +12 +13 1008.8 980.6 +9.8 +18.1
07 18.06 СВ 2 40 км 9/9 2000 м
[]
+13.9 +1.4 43 +14 +14 1008.7 980.6
08 18.06 В 2 45 км 9/9 2000 м
[]
+13.2 +1.2 44 +13 +14 1008.8 980.6
09 18.06 СВ 3 35 км в посл. час дождь 9/9 2000 м
[]
+14.0 +3.0 47 +13 +14 1008.4 980.3
10 18.06 В 2 35 км в посл. час морось 9/9 2000 м
[]
+14.5 +2.0 43 +14 +15 1008.1 980.1
11 18.06 В 2 30 км в посл. час морось 10/10
[]
+15.6 +2.3 41 +16 +16 1007.7 979.7
12 18.06 В 2 35 км 9/9
[]
+15.7 +2.6 41 +16 +17 1007.2 979.3
13 18.06 СВ 2 16 км слаб. ливневой дождь 10/10 1500 м
[]
+13.3 +6.8 65 +13 +13 1007.3 979.1
14 18.06 СВ 2 19 км слаб. дождь 10/10 1500 м
[]
+12.0 +8.0 76 +11 +11 1007.0 978.8
15 18.06 СВ 1 18 км слаб. дождь 10/10 1500 м
[]
+11.5 +8.8 83 +11 +11 1006.6 978.3
16 18.06 СВ 3 45 км в посл. час дождь 9/9 2000 м
[]
+13.4 +8.8 74 +12 +13 1005.7 977.6
17 18.06 СВ 1 45 км 9/5 1500 м
[]
+13.1 +7.5 69 +13 +14 1005.4 977.3
18 18.06 СВ 2 50 км 10/10 1500 м
[]
+13.1 +5.9 62 +13 +13 1005.1 977.0 +11.4 +16.5 1
19 18.06 З 1 10 км дождь 10/10 1500 м
[]
+10.6 +9.1 90 +10 +10 1005.8 977.4
20 18.06 СЗ 3 45 км слаб. дождь 9/1 1000 м
[]
+10.5 +8.8 89 +8 +8 1005.1 976.7
21 18.06 СЗ 2 35 км 10/10 600 м
[]
+9.5 +8.6 94 +8 +8 1005.3 976.8
22 18.06 СЗ 2 50 км в посл. час дождь 9/9 600 м
[]
+9.8 +8.4 91 +8 +8 1005.3 976.8
23 18.06 СЗ 3 50 км 10/10 600 м
[]
+9.4 +8.1 92 +7 +7 1005.5 977.0
00 19.06 СЗ 3 50 км 10/10 200 м
[]
+9.1 +7.7 91 +7 +7 1005.8 977.3
01 19.06 СЗ 2 50 км 9/9 300 м
[]
+8.8 +7.3 90 +7 +7 1005.9 977.3
02 19.06 СЗ 3 50 км 10/10 200 м
[]
+8.7 +7.4 92 +6 +6 1005.9 977.4
03 19.06 СЗ 3 50 км 10/10 300 м
[]
+9.2 +6.9 86 +7 +7 1006.6 978.1
04 19.06 СЗ 3 40 км 6/6 300 м
[]
+10.7 +7.1 78 +9 +10 1006.6 978.2
05 19.06 СЗ 3 50 км 9/9 600 м
[]
+9.9 +6.5 79 +8 +8 1006.8 978.3
06 19.06 С 3 45 км 8/8 300 м
[]
+10.9 +6.0 72 +9 +10 1006.8 978.4 +8.7 +13.1 1
07 19.06 З 2 40 км 9/9 600 м
[]
+12.0 +6.3 68 +11 +12 1006.7 978.5
08 19.06 З 2 40 км 9/9 600 м
[]
+12.7 +5.9 63 +12 +13 1006.9 978.7
09 19.06 СЗ 3 40 км 10/10 600 м
[]
+13.1 +6.0 62 +12 +12 1007.3 979.1
10 19.06 СЗ 2 45 км 9/9 1000 м
[]
+13.9 +5.2 56 +14 +15 1007.3 979.2
11 19.06 З 3 35 км 10/10 1000 м
[]
+14.2 +5.2 55 +13 +13 1007.6 979.5
12 19.06 СЗ 2 40 км 9/9 1000 м
[]
+14.6 +5.3 54 +14 +15 1007.9 979.9
13 19.06 СЗ 3 45 км 9/9 1000 м
[]
+14.9 +5.3 53 +14 +15 1008.1 980.1
14 19.06 СЗ 3 29 км 4/4 1000 м
[]
+16.2 +5.7 50 +16 +20 1008.1 980.2
15 19.06 СЗ 3 28 км 5/5 1500 м
[]
+15.8 +5.5 50 +15 +18 1008.4 980.5
16 19.06 С 2 45 км 4/3 1000 м
[]
+15.1 +5.1 51 +15 +17 1008.7 980.6
17 19.06 С 2 45 км в посл. час дождь 6/1 1000 м
[]
+14.8 +5.4 53 +15 +16 1009.0 980.9
18 19.06 С 2 45 км 5/5 1500 м
[]
+15.1 +4.9 50 +15 +16 1009.3 981.3 +10.9 +16.6
19 19.06 СВ 1 45 км 1/1 2000 м
[]
+14.4 +5.5 55 +15 +16 1009.8 981.7
20 19.06 СВ 1 50 км 9/9 1000 м
[]
+13.0 +6.4 64 +13 +13 1010.4 982.1
21 19.06 СВ 1 50 км 9/9 1000 м
[]
+12.4 +6.0 65 +13 +13 1011.1 982.8
22 19.06 В 1 50 км 10/8 1000 м
[]
+11.4 +6.5 72 +11 +11 1011.5 983.1
00 20.06 СВ 1 50 км 1/1 1500 м
[]
+7.2 +5.9 91 +6 +6 1012.5 983.6
01 20.06 штиль 0 50 км ясно +6.9 +6.2 95 +6 +6 1012.9 983.9
02 20.06 С 1 50 км 9/9 1000 м
[]
+6.5 +6.0 97 +5 +5 1013.2 984.2
03 20.06 З 1 50 км 10/3 1000 м
[]
+10.5 +7.3 81 +10 +11 1013.0 984.4
04 20.06 В 1 50 км 10/10 2000 м
[]
+11.0 +7.1 77 +11 +11 1012.8 984.2
05 20.06 Ю 1 50 км 10/10 2000 м
[]
+11.7 +7.0 73 +12 +12 1012.8 984.3
06 20.06 ЮВ 2 45 км 9/9 2000 м
[]
+12.3 +7.4 72 +11 +12 1012.8 984.4 +6.2 +15.2
07 20.06 СЗ 1 40 км 10/10 2000 м
[]
+13.1 +7.6 69 +13 +13 1012.6 984.3
08 20.06 Ю 1 45 км 10/10 2000 м
[]
+14.4 +7.6 64 +15 +15 1012.4 984.2
09 20.06 СЗ 1 40 км 9/0 2000 м
[]
+14.9 +6.3 56 +16 +22 1012.4 984.3
10 20.06 З 1 35 км 9/9 2000 м
[]
+15.7 +5.9 52 +17 +18 1012.3 984.3
11 20.06 СЗ 2 26 км 10/10 2000 м
[]
+16.5 +4.0 43 +17 +17 1012.1 984.1
12 20.06 З 2 30 км 3/1 1500 м
[]
+17.3 +5.4 45 +18 +26 1011.7 983.8
13 20.06 ЮЗ 1 35 км 4/4 1500 м
[]
+17.1 +5.1 45 +18 +25 1011.5 983.6
14 20.06 ЮЗ 2 45 км 9/9 2000 м
[]
+17.5 +4.3 42 +18 +19 1011.2 983.3
15 20.06 В 2 50 км 6/3 1500 м
[]
+16.9 +5.5 47 +17 +20 1011.0 983.1
16 20.06 В 2 35 км 8/8 2000 м
[]
+17.1 +6.1 48 +17 +18 1010.8 982.9
17 20.06 В 3 40 км 9/9 2000 м
[]
+16.8 +5.0 46 +17 +17 1010.5 982.6
18 20.06 В 3 40 км 9/9 1500 м
[]
+16.4 +6.7 53 +16 +16 1010.3 982.4 +12.3 +18.3
19 20.06 В 3 40 км в посл. час дождь 10/10 1000 м
[]
+15.6 +7.0 57 +15 +15 1010.6 982.5
20 20.06 Ю 2 40 км слаб. ливневой дождь 10/10 1000 м
[]
+12.7 +10.3 85 +12 +12 1011.4 983.1
21 20.06 В 2 45 км слаб. дождь 10/3 1000 м
[]
+11.8 +10.1 89 +11 +11 1011.4 983.0
22 20.06 ЮВ 2 22 км слаб. дождь 10/10 1500 м
[]
+11.0 +10.2 95 +10 +10 1011.5 983.0
23 20.06 СВ 2 35 км слаб. дождь 10/10 1500 м
[]
+10.6 +9.8 95 +9 +9 1011.0 982.5
00 21.06 В 2 14 км дождь 10/10 600 м
[]
+10.7 +10.2 97 +9 +9 1010.8 982.3
01 21.06 СВ 2 20 км морось 10/10 1000 м
[]
+10.6 +9.9 95 +9 +9 1010.4 981.9
02 21.06 СВ 2 25 км слаб. дождь 10/10 1500 м
[]
+10.7 +10.1 96 +9 +9 1009.8 981.3
03 21.06 В 2 30 км слаб. дождь 10/10 200 м
[]
+11.3 +10.8 97 +10 +10 1008.8 980.4
04 21.06 В 2 30 км слаб. дождь 10/10 200 м
[]
+11.4 +10.7 95 +10 +10 1008.4 980.0
05 21.06 В 2 30 км слаб. ливневой дождь 10/10 200 м
[]
+11.4 +10.4 94 +10 +10 1007.8 979.4
06 21.06 В 3 19 км слаб. дождь 10/10 300 м
[]
+11.7 +10.9 95 +10 +10 1007.0 978.7 +10.5 +16.4 5
07 21.06 В 3 45 км слаб. дождь 10/10 200 м
[]
+11.6 +10.7 94 +10 +10 1006.5 978.2
08 21.06 В 3 40 км в посл. час морось 10/10 200 м
[]
+11.9 +11.0 94 +10 +10 1006.0 977.8
09 21.06 В 5 17 км дождь 10/10 200 м
[]
+12.1 +10.9 92 +10 +10 1005.5 977.3
10 21.06 В 3 7000 м дождь 10/10 100 м
[]
+12.0 +11.3 95 +10 +10 1005.4 977.2
11 21.06 В 4 11 км дождь 10/10 100 м
[]
+11.9 +11.3 96 +10 +10 1005.2 977.0
12 21.06 В 3 27 км слаб. дождь 10/10 200 м
[]
+12.2 +11.5 95 +10 +10 1004.6 976.4
13 21.06 В 3 8000 м сильн. морось 10/10 100 м
[]
+12.4 +11.9 97 +11 +11 1004.2 976.1
14 21.06 В 3 27 км в посл. час морось 10/10 100 м
[]
+12.9 +12.2 96 +11 +11 1004.0 975.9
15 21.06 В 5 30 км слаб. ливневой дождь 10/10 200 м
[]
+12.9 +12.0 94 +11 +11 1003.8 975.7
16 21.06 В 3 10 км ливневой дождь 10/10 200 м
[]
+12.8 +12.2 96 +11 +11 1003.6 975.5
17 21.06 В 2 45 км в посл. час дождь 10/10 200 м
[]
+12.9 +12.3 96 +12 +12 1003.4 975.3
18 21.06 СВ 2 40 км 10/10 100 м
[]
+12.7 +12.1 96 +12 +12 1003.3 975.2 +11.6 +13.1 5
19 21.06 В 3 30 км в посл. час дождь 10/10 100 м
[]
+12.3 +11.7 96 +11 +11 1003.5 975.3
20 21.06 СВ 3 30 км 10/10 100 м
[]
+12.1 +11.5 96 +10 +10 1003.4 975.3
21 21.06 В 3 40 км 10/10 100 м
[]
+11.6 +11.0 96 +10 +10 1003.5 975.3
22 21.06 В 2 50 км 10/10 100 м
[]
+11.5 +10.8 95 +10 +10 1003.5 975.3
23 21.06 В 2 50 км 10/10 100 м
[]
+11.3 +10.7 96 +10 +10 1003.6 975.3
00 22.06 СВ 1 50 км 10/10 100 м
[]
+11.1 +10.5 96 +11 +11 1003.5 975.3
01 22.06 СВ 1 50 км 10/10 100 м
[]
+11.1 +10.5 96 +11 +11 1003.5 975.2
02 22.06 В 1 40 км 10/10 200 м
[]
+11.2 +10.5 95 +11 +11 1003.5 975.2
03 22.06 В 1 50 км в посл. час дождь 10/10 100 м
[]
+11.4 +10.7 95 +11 +11 1003.3 975.0
04 22.06 СВ 2 35 км 10/10 100 м
[]
+11.7 +10.7 94 +10 +10 1002.7 974.5
05 22.06 СВ 2 7000 м морось 10/10 200 м
[]
+11.8 +10.8 94 +11 +11 1002.3 974.2
06 22.06 СВ 2 40 км 10/10 200 м
[]
+11.8 +10.8 94 +11 +11 1001.9 973.8 +11.1 +12.7 0.1
07 22.06 СВ 2 15 км морось 10/10 100 м
[]
+11.6 +10.8 95 +10 +10 1002.0 973.8
08 22.06 СВ 2 40 км слаб. ливневой дождь 10/10 100 м
[]
+10.9 +9.9 94 +9 +9 1002.4 974.1
09 22.06 С 3 40 км в посл. час осадки 10/10 200 м
[]
+10.5 +9.2 92 +8 +8 1002.0 973.8
10 22.06 С 3 45 км 10/10 200 м
[]
+10.9 +9.0 88 +9 +9 1002.0 973.8
11 22.06 СВ 3 45 км 10/10 200 м
[]
+11.6 +9.3 86 +10 +10 1001.5 973.3
12 22.06 СВ 2 10 км слаб. дождь 10/10 200 м
[]
+10.5 +9.7 95 +9 +9 1001.4 973.2
13 22.06 С 2 30 км слаб. ливневой дождь 10/10 100 м
[]
+11.1 +10.0 93 +10 +10 1001.5 973.3
14 22.06 С 3 50 км 10/10 200 м
[]
+11.3 +9.9 91 +9 +9 1001.3 973.2
15 22.06 С 3 10 км дождь 10/10 200 м
[]
+10.2 +9.6 96 +8 +8 1001.4 973.1
16 22.06 С 3 6000 м дождь 10/10 200 м
[]
+9.8 +9.2 96 +7 +7 1001.5 973.1
17 22.06 С 3 20 км морось 10/10 200 м
[]
+9.5 +8.9 96 +7 +7 1001.8 973.5
18 22.06 СЗ 4 22 км морось 10/10 300 м
[]
+9.2 +8.4 95 +6 +6 1002.1 973.7 +9.2 +11.9 14
19 22.06 СЗ 3 8000 м слаб. дождь 10/10 200 м
[]
+8.9 +8.4 97 +6 +6 1002.5 974.1
20 22.06 СЗ 3 9000 м дождь 10/10 300 м
[]
+8.3 +7.6 95 +5 +5 1003.2 974.7
21 22.06 СЗ 4 4500 м дождь 10/10 200 м
[]
+7.3 +6.7 96 +4 +4 1003.9 975.3
22 22.06 СЗ 4 14 км слаб. дождь 10/10 200 м
[]
+6.9 +6.1 95 +3 +3 1004.2 975.5
23 22.06 СЗ 4 3600 м сильн. морось 10/10 200 м
[]
+6.5 +6.0 97 +3 +3 1004.8 976.1
00 23.06 СЗ 4 11 км дождь 10/10 200 м
[]
+5.9 +5.1 95 +2 +2 1005.6 976.8
01 23.06 СЗ 4 12 км дождь 10/10 300 м
[]
+5.7 +5.0 95 +2 +2 1006.1 977.2
02 23.06 СЗ 3 19 км слаб. дождь 10/10 300 м
[]
+5.5 +4.8 95 +2 +2 1006.6 977.8
03 23.06 СЗ 4 12 км слаб. дождь 10/10 300 м
[]
+5.4 +4.6 95 +1 +1 1007.2 978.3
04 23.06 СЗ 4 24 км морось 10/10 300 м
[]
+5.6 +4.6 93 +1 +1 1007.9 979.0
05 23.06 СЗ 3 18 км морось 10/10 300 м
[]
+5.6 +4.7 94 +2 +2 1008.7 979.8
06 23.06 С 4 25 км морось 10/10 200 м
[]
+5.4 +4.3 93 +1 +1 1009.8 980.8 +5.4 +9.2 9
07 23.06 С 4 9000 м морось 10/10 200 м
[]
+5.3 +4.3 93 +1 +1 1010.7 981.6
08 23.06 С 4 14 км слаб. дождь 10/10 300 м
[]
+5.5 +4.3 92 +1 +1 1011.6 982.6
09 23.06 С 4 13 км слаб. дождь 10/10 300 м
[]
+6.2 +4.7 90 +2 +2 1012.6 983.6
10 23.06 С 3 13 км слаб. дождь 10/10 300 м
[]
+6.6 +5.6 93 +3 +3 1013.5 984.5
11 23.06 С 3 13 км слаб. дождь 10/10 300 м
[]
+6.8 +5.5 91 +4 +4 1014.4 985.4
12 23.06 С 3 7000 м слаб. дождь 10/10 200 м
[]
+6.9 +5.9 93 +4 +4 1015.5 986.5
13 23.06 С 1 7000 м дождь 10/10 200 м
[]
+7.3 +6.5 95 +6 +6 1016.1 987.1
14 23.06 З 1 22 км слаб. дождь 10/10 200 м
[]
+8.1 +6.9 92 +7 +7 1016.7 987.8
15 23.06 З 2 45 км в посл. час дождь 9/5 300 м
[]
+9.5 +7.3 86 +8 +9 1016.9 988.1
16 23.06 З 3 50 км 9/9 300 м
[]
+9.7 +7.1 84 +7 +8 1017.2 988.4
17 23.06 СЗ 3 50 км 9/6 600 м
[]
+9.8 +6.7 81 +8 +8 1017.6 988.8
18 23.06 З 1 45 км 9/3 600 м
[]
+10.0 +6.7 80 +10 +10 1017.8 989.1 +5.2 +10.0 5
19 23.06 СЗ 2 45 км 10/10
[]
+9.6 +6.8 83 +8 +8 1018.1 989.3
20 23.06 З 1 50 км 8/1 1000 м
[]
+9.4 +7.0 85 +9 +9 1018.8 990.0
21 23.06 ЮЗ 1 50 км 9/9 1000 м
[]
+8.7 +7.2 90 +8 +8 1019.5 990.6
22 23.06 ЮЗ 1 50 км 9/9 1000 м
[]
+8.6 +7.1 90 +8 +8 1020.0 991.1
23 23.06 З 1 50 км 10/9 1500 м
[]
+8.3 +6.7 90 +7 +7 1020.5 991.5
00 24.06 штиль 0 40 км 8/5 2000 м
[]
+7.1 +6.4 95 +6 +6 1021.1 991.9
01 24.06 З 1 50 км 10/10 1500 м
[]
+7.5 +6.8 95 +6 +6 1021.2 992.1
02 24.06 З 2 30 км слаб. дождь 9/9 1500 м
[]
+8.5 +6.3 86 +7 +7 1021.5 992.4
03 24.06 З 1 19 км слаб. дождь 10/10 600 м
[]
+8.5 +7.2 92 +8 +8 1022.1 993.0
05 24.06 СЗ 2 35 км слаб. дождь 10/10 1000 м
[]
+9.2 +8.2 93 +7 +7 1022.6 993.6
06 24.06 З 1 30 км морось 10/10 200 м
[]
+10.0 +8.2 89 +9 +9 1023.0 994.1 +6.9 +10.0 1
07 24.06 З 1 28 км слаб. морось 10/10 200 м
[]
+11.0 +8.6 85 +11 +11 1023.0 994.2
08 24.06 З 1 40 км в посл. час морось 9/1 300 м
[]
+11.9 +7.9 76 +12 +17 1023.0 994.3

 

Местоположение метеостанции Муонио Аламуонио (Финляндия): широта 67.99 долгота 23.68 высота над уровнем моря 236 м.

В архиве по умолчанию представлена погода в Муонио Аламуонио за последнюю неделю. Архивные данные за месяц целиком и за предыдущие месяцы, начиная с января 2011 года, Вы можете получить, выбрав интересующий диапазон дат из раскрывающегося списка и нажав кнопку "Ввод!".


*Определитесь, кто Вы:
робот инопланетянин человек

Внимание! Время в таблицах - всемирное. Для получения местного времени необходимо прибавить поправку, которая равна 1 ч.

Смотрите также архив погоды в соседних городах и на ближайших метеорологических станциях:

Погода в Муонио Лаукукеро (Финляндия) (17 км)
Погода в Муонио Саммалтунтури (Финляндия) (18 км)
Погода в Киттиля Ломполонвуома (Финляндия) (22 км)
Погода в Киттила Кенттарова (Финляндия) (23 км)
Погода в Киттила Маторова (Финляндия) (23 км)
Погода в Паркаломполо (Швеция) (46 км)
Погода в Киттила Левитунтури (Финляндия) (54 км)
Погода в Киттиля (Финляндия) (59 км)
Погода в Киттиля (Финляндия) (64 км)
Погода в Наккала (Финляндия) (68 км)

Пояснения к столбцам:

Ветер - указаны скорость ветра в м/с - средняя за 10 мин, порывы в срок и между сроками (в фигурных скобках) и направление, откуда дует ветер: С - северный, СВ - северо-восточный, В - восточный, ЮВ - юго-восточный, Ю - южный, ЮЗ - юго-западный, З - западный, СЗ - северо-западный.
Видимость - горизонтальная дальность видимости в метрах или километрах. При видимости от 1 до 10 км при отсутствии осадков обычно наблюдается дымка, при ухудшении видимости до 1 км и менее - туман. В сухую погоду видимость может ухудшаться дымом, пылью или мглою.
Явления - указаны атмосферные явления, наблюдавшиеся в срок или в последний час перед сроком; фигурными скобками обозначены явления, наблюдавшиеся между сроками (за 1-3 часа до срока); квадратными скобками обозначены град или гололедные отложения с указанием их диаметра в мм.
Облачность - указаны через наклонную черту общая и нижняя облачность в баллах и высота нижней границы облаков в метрах; квадратными скобками обозначены формы облаков: Ci - перистые, Cs - перисто-слоистые, Cc - перисто-кучевые, Ac - высококучевые, As - высокослоистые, Sc - слоисто-кучевые, Ns - слоисто-дождевые, Cu - кучевые, Cb - кучево-дождевые. Подробнее классификацию облаков см. в Атласе облаков (PDF).
T - Температура воздуха - температура, измеренная на высоте 2 м над землей.
Td - Температура точки росы - температура, при понижении до которой содержащийся в воздухе водяной пар достигнет насыщения.
f - Относительная влажность воздуха - влажноcть воздуха, измеренная на высоте 2 м над землей.
Te - Эффективная температура - температура, которую ощущает одетый по сезону человек в тени. Характеристика душности погоды. При расчете учитывается влияние влажности воздуха и скорости ветра на теплоощущения человека.
Tes - Эффективная температура на солнце - температура, которую ощущает человек, с поправкой на солнечный нагрев. Характеристика знойности погоды. Зависит от высоты солнца над горизонтом, облачности и скорости ветра. Ночью, в пасмурную погоду, а также при ветре 12 м/с и более поправка равна нулю.
P - Атмосферное давление - приведенное к уровню моря атмосферное давление.
Po - Атмосферное давление - измеренное на уровне метеостанции атмосферное давление.
Tmin - Минимальная температура - минимум температуры воздуха на высоте 2 м над землей.
Tmax - Максимальная температура - максимум температуры воздуха на высоте 2 м над землей.
R - Количество осадков - Количество выпавших осадков за период времени, мм. При наведении курсора мыши на число - период времени, за который выпало указанное количество осадков.
R24 - Количество осадков - Количество выпавших осадков за 24 часа, мм.
S - Снежный покров - Высота снежного покрова, см. При наведении курсора мыши на число - состояние снежного покрова и степень покрытия местности в баллах.